Year,Month,Day,Hour,Minute,Value (Times are PST for temperature in C)
2018,04,02,00,00,0.60
2018,04,02,00,01,0.60
2018,04,02,00,02,0.60
2018,04,02,00,03,0.50
2018,04,02,00,04,0.50
2018,04,02,00,05,0.50
2018,04,02,00,06,0.50
2018,04,02,00,07,0.50
2018,04,02,00,08,0.50
2018,04,02,00,09,0.50
2018,04,02,00,10,0.40
2018,04,02,00,11,0.40
2018,04,02,00,12,0.40
2018,04,02,00,13,0.40
2018,04,02,00,14,0.30
2018,04,02,00,15,0.30
2018,04,02,00,16,0.30
2018,04,02,00,17,0.30
2018,04,02,00,18,0.30
2018,04,02,00,19,0.30
2018,04,02,00,20,0.20
2018,04,02,00,21,0.20
2018,04,02,00,22,0.20
2018,04,02,00,23,0.20
2018,04,02,00,24,0.10
2018,04,02,00,25,0.10
2018,04,02,00,26,0.10
2018,04,02,00,27,0.10
2018,04,02,00,28,0.10
2018,04,02,00,29,0.00
2018,04,02,00,30,-0.10
2018,04,02,00,31,-0.10
2018,04,02,00,32,-0.20
2018,04,02,00,33,-0.20
2018,04,02,00,34,-0.30
2018,04,02,00,35,-0.30
2018,04,02,00,36,-0.30
2018,04,02,00,37,-0.40
2018,04,02,00,38,-0.40
2018,04,02,00,39,-0.40
2018,04,02,00,40,-0.40
2018,04,02,00,41,-0.40
2018,04,02,00,42,-0.40
2018,04,02,00,43,-0.40
2018,04,02,00,44,-0.40
2018,04,02,00,45,-0.40
2018,04,02,00,46,-0.40
2018,04,02,00,47,-0.40
2018,04,02,00,48,-0.40
2018,04,02,00,49,-0.40
2018,04,02,00,50,-0.50
2018,04,02,00,51,-0.40
2018,04,02,00,52,-0.40
2018,04,02,00,53,-0.40
2018,04,02,00,54,-0.30
2018,04,02,00,55,-0.30
2018,04,02,00,56,-0.40
2018,04,02,00,57,-0.40
2018,04,02,00,58,-0.40
2018,04,02,00,59,-0.40
2018,04,02,01,00,-0.40
2018,04,02,01,01,-0.40
2018,04,02,01,02,-0.40
2018,04,02,01,03,-0.40
2018,04,02,01,04,-0.40
2018,04,02,01,05,-0.40
2018,04,02,01,06,-0.40
2018,04,02,01,07,-0.40
2018,04,02,01,08,-0.40
2018,04,02,01,09,-0.40
2018,04,02,01,10,-0.30
2018,04,02,01,11,-0.30
2018,04,02,01,12,-0.30
2018,04,02,01,13,-0.30
2018,04,02,01,14,-0.30
2018,04,02,01,15,-0.30
2018,04,02,01,16,-0.30
2018,04,02,01,17,-0.30
2018,04,02,01,18,-0.30
2018,04,02,01,19,-0.30
2018,04,02,01,20,-0.30
2018,04,02,01,21,-0.30
2018,04,02,01,22,-0.30
2018,04,02,01,23,-0.30
2018,04,02,01,24,-0.30
2018,04,02,01,25,-0.30
2018,04,02,01,26,-0.30
2018,04,02,01,27,-0.30
2018,04,02,01,28,-0.30
2018,04,02,01,29,-0.30
2018,04,02,01,30,-0.30
2018,04,02,01,31,-0.30
2018,04,02,01,32,-0.20
2018,04,02,01,33,-0.20
2018,04,02,01,34,-0.10
2018,04,02,01,35,0.00
2018,04,02,01,36,0.10
2018,04,02,01,37,0.20
2018,04,02,01,38,0.30
2018,04,02,01,39,0.40
2018,04,02,01,40,0.40
2018,04,02,01,41,0.40
2018,04,02,01,42,0.40
2018,04,02,01,43,0.40
2018,04,02,01,44,0.30
2018,04,02,01,45,0.30
2018,04,02,01,46,0.30
2018,04,02,01,47,0.20
2018,04,02,01,48,0.20
2018,04,02,01,49,0.20
2018,04,02,01,50,0.20
2018,04,02,01,51,0.20
2018,04,02,01,52,0.20
2018,04,02,01,53,0.20
2018,04,02,01,54,0.10
2018,04,02,01,55,0.10
2018,04,02,01,56,0.10
2018,04,02,01,57,0.10
2018,04,02,01,58,0.10
2018,04,02,01,59,0.00
2018,04,02,02,00,0.00
2018,04,02,02,01,0.00
2018,04,02,02,02,0.00
2018,04,02,02,03,0.00
2018,04,02,02,04,0.00
2018,04,02,02,05,0.10
2018,04,02,02,06,0.10
2018,04,02,02,07,0.10
2018,04,02,02,08,0.10
2018,04,02,02,09,0.00
2018,04,02,02,10,0.00
2018,04,02,02,11,0.10
2018,04,02,02,12,0.20
2018,04,02,02,13,0.20
2018,04,02,02,14,0.20
2018,04,02,02,15,0.20
2018,04,02,02,16,0.20
2018,04,02,02,17,0.20
2018,04,02,02,18,0.20
2018,04,02,02,19,0.20
2018,04,02,02,20,0.30
2018,04,02,02,21,0.30
2018,04,02,02,22,0.30
2018,04,02,02,23,0.40
2018,04,02,02,24,0.40
2018,04,02,02,25,0.40
2018,04,02,02,26,0.40
2018,04,02,02,27,0.40
2018,04,02,02,28,0.30
2018,04,02,02,29,0.30
2018,04,02,02,30,0.20
2018,04,02,02,31,0.20
2018,04,02,02,32,0.30
2018,04,02,02,33,0.30
2018,04,02,02,34,0.40
2018,04,02,02,35,0.40
2018,04,02,02,36,0.40
2018,04,02,02,37,0.40
2018,04,02,02,38,0.30
2018,04,02,02,39,0.30
2018,04,02,02,40,0.30
2018,04,02,02,41,0.30
2018,04,02,02,42,0.30
2018,04,02,02,43,0.40
2018,04,02,02,44,0.40
2018,04,02,02,45,0.40
2018,04,02,02,46,0.40
2018,04,02,02,47,0.40
2018,04,02,02,48,0.40
2018,04,02,02,49,0.40
2018,04,02,02,50,0.40
2018,04,02,02,51,0.40
2018,04,02,02,52,0.50
2018,04,02,02,53,0.50
2018,04,02,02,54,0.50
2018,04,02,02,55,0.50
2018,04,02,02,56,0.50
2018,04,02,02,57,0.40
2018,04,02,02,58,0.40
2018,04,02,02,59,0.50
2018,04,02,03,00,0.50
2018,04,02,03,01,0.60
2018,04,02,03,02,0.60
2018,04,02,03,03,0.70
2018,04,02,03,04,0.70
2018,04,02,03,05,0.70
2018,04,02,03,06,0.70
2018,04,02,03,07,0.60
2018,04,02,03,08,0.70
2018,04,02,03,09,0.70
2018,04,02,03,10,0.70
2018,04,02,03,11,0.80
2018,04,02,03,12,0.80
2018,04,02,03,13,0.80
2018,04,02,03,14,0.80
2018,04,02,03,15,0.80
2018,04,02,03,16,0.80
2018,04,02,03,17,0.70
2018,04,02,03,18,0.80
2018,04,02,03,19,0.80
2018,04,02,03,20,0.80
2018,04,02,03,21,0.80
2018,04,02,03,22,0.80
2018,04,02,03,23,0.70
2018,04,02,03,24,0.70
2018,04,02,03,25,0.70
2018,04,02,03,26,0.70
2018,04,02,03,27,0.70
2018,04,02,03,28,0.70
2018,04,02,03,29,0.70
2018,04,02,03,30,0.60
2018,04,02,03,31,0.50
2018,04,02,03,32,0.50
2018,04,02,03,33,0.50
2018,04,02,03,34,0.60
2018,04,02,03,35,0.70
2018,04,02,03,36,0.70
2018,04,02,03,37,0.70
2018,04,02,03,38,0.80
2018,04,02,03,39,0.90
2018,04,02,03,40,0.90
2018,04,02,03,41,1.00
2018,04,02,03,42,1.00
2018,04,02,03,43,1.10
2018,04,02,03,44,1.10
2018,04,02,03,45,1.20
2018,04,02,03,46,1.20
2018,04,02,03,47,1.20
2018,04,02,03,48,1.30
2018,04,02,03,49,1.30
2018,04,02,03,50,1.30
2018,04,02,03,51,1.30
2018,04,02,03,52,1.30
2018,04,02,03,53,1.30
2018,04,02,03,54,1.20
2018,04,02,03,55,1.20
2018,04,02,03,56,1.20
2018,04,02,03,57,1.30
2018,04,02,03,58,1.30
2018,04,02,03,59,1.30
2018,04,02,04,00,1.40
2018,04,02,04,01,1.40
2018,04,02,04,02,1.40
2018,04,02,04,03,1.50
2018,04,02,04,04,1.40
2018,04,02,04,05,1.40
2018,04,02,04,06,1.40
2018,04,02,04,07,1.40
2018,04,02,04,08,1.40
2018,04,02,04,09,1.40
2018,04,02,04,10,1.40
2018,04,02,04,11,1.40
2018,04,02,04,12,1.40
2018,04,02,04,13,1.40
2018,04,02,04,14,1.40
2018,04,02,04,15,1.40
2018,04,02,04,16,1.40
2018,04,02,04,17,1.40
2018,04,02,04,18,1.40
2018,04,02,04,19,1.40
2018,04,02,04,20,1.30
2018,04,02,04,21,1.30
2018,04,02,04,22,1.30
2018,04,02,04,23,1.30
2018,04,02,04,24,1.30
2018,04,02,04,25,1.30
2018,04,02,04,26,1.30
2018,04,02,04,27,1.30
2018,04,02,04,28,1.30
2018,04,02,04,29,1.30
2018,04,02,04,30,1.30
2018,04,02,04,31,1.30
2018,04,02,04,32,1.30
2018,04,02,04,33,1.40
2018,04,02,04,34,1.40
2018,04,02,04,35,1.40
2018,04,02,04,36,1.40
2018,04,02,04,37,1.40
2018,04,02,04,38,1.40
2018,04,02,04,39,1.40
2018,04,02,04,40,1.30
2018,04,02,04,41,1.30
2018,04,02,04,42,1.30
2018,04,02,04,43,1.30
2018,04,02,04,44,1.30
2018,04,02,04,45,1.30
2018,04,02,04,46,1.30
2018,04,02,04,47,1.40
2018,04,02,04,48,1.40
2018,04,02,04,49,1.40
2018,04,02,04,50,1.40
2018,04,02,04,51,1.40
2018,04,02,04,52,1.40
2018,04,02,04,53,1.40
2018,04,02,04,54,1.50
2018,04,02,04,55,1.50
2018,04,02,04,56,1.60
2018,04,02,04,57,1.60
2018,04,02,04,58,1.70
2018,04,02,04,59,1.80
2018,04,02,05,00,1.90
2018,04,02,05,01,1.90
2018,04,02,05,02,1.90
2018,04,02,05,03,2.00
2018,04,02,05,04,1.90
2018,04,02,05,05,1.90
2018,04,02,05,06,2.00
2018,04,02,05,07,2.10
2018,04,02,05,08,2.10
2018,04,02,05,09,2.10
2018,04,02,05,10,2.20
2018,04,02,05,11,2.20
2018,04,02,05,12,2.20
2018,04,02,05,13,2.20
2018,04,02,05,14,2.20
2018,04,02,05,15,2.20
2018,04,02,05,16,2.20
2018,04,02,05,17,2.20
2018,04,02,05,18,2.10
2018,04,02,05,19,2.10
2018,04,02,05,20,2.10
2018,04,02,05,21,2.10
2018,04,02,05,22,2.10
2018,04,02,05,23,2.10
2018,04,02,05,24,2.10
2018,04,02,05,25,2.10
2018,04,02,05,26,2.10
2018,04,02,05,27,2.10
2018,04,02,05,28,2.10
2018,04,02,05,29,2.10
2018,04,02,05,30,2.10
2018,04,02,05,31,2.00
2018,04,02,05,32,2.00
2018,04,02,05,33,2.00
2018,04,02,05,34,2.00
2018,04,02,05,35,2.00
2018,04,02,05,36,2.00
2018,04,02,05,37,1.90
2018,04,02,05,38,1.90
2018,04,02,05,39,1.90
2018,04,02,05,40,1.90
2018,04,02,05,41,1.90
2018,04,02,05,42,1.80
2018,04,02,05,43,1.80
2018,04,02,05,44,1.80
2018,04,02,05,45,1.80
2018,04,02,05,46,1.80
2018,04,02,05,47,1.80
2018,04,02,05,48,1.70
2018,04,02,05,49,1.70
2018,04,02,05,50,1.70
2018,04,02,05,51,1.70
2018,04,02,05,52,1.70
2018,04,02,05,53,1.70
2018,04,02,05,54,1.60
2018,04,02,05,55,1.60
2018,04,02,05,56,1.60
2018,04,02,05,57,1.50
2018,04,02,05,58,1.40
2018,04,02,05,59,1.30
2018,04,02,06,00,1.20
2018,04,02,06,01,1.10
2018,04,02,06,02,1.10
2018,04,02,06,03,1.00
2018,04,02,06,04,1.00
2018,04,02,06,05,1.00
2018,04,02,06,06,1.10
2018,04,02,06,07,1.00
2018,04,02,06,08,0.90
2018,04,02,06,09,1.00
2018,04,02,06,10,1.00
2018,04,02,06,11,1.00
2018,04,02,06,12,1.00
2018,04,02,06,13,1.00
2018,04,02,06,14,1.00
2018,04,02,06,15,1.00
2018,04,02,06,16,0.90
2018,04,02,06,17,0.90
2018,04,02,06,18,0.80
2018,04,02,06,19,0.90
2018,04,02,06,20,0.90
2018,04,02,06,21,0.90
2018,04,02,06,22,1.00
2018,04,02,06,23,1.10
2018,04,02,06,24,1.10
2018,04,02,06,25,1.20
2018,04,02,06,26,1.20
2018,04,02,06,27,1.30
2018,04,02,06,28,1.30
2018,04,02,06,29,1.40
2018,04,02,06,30,1.40
2018,04,02,06,31,1.40
2018,04,02,06,32,1.50
2018,04,02,06,33,1.50
2018,04,02,06,34,1.50
2018,04,02,06,35,1.50
2018,04,02,06,36,1.50
2018,04,02,06,37,1.50
2018,04,02,06,38,1.60
2018,04,02,06,39,1.60
2018,04,02,06,40,1.50
2018,04,02,06,41,1.50
2018,04,02,06,42,1.50
2018,04,02,06,43,1.40
2018,04,02,06,44,1.40
2018,04,02,06,45,1.30
2018,04,02,06,46,1.30
2018,04,02,06,47,1.20
2018,04,02,06,48,1.00
2018,04,02,06,49,0.90
2018,04,02,06,50,0.80
2018,04,02,06,51,0.60
2018,04,02,06,52,0.50
2018,04,02,06,53,0.40
2018,04,02,06,54,0.30
2018,04,02,06,55,0.20
2018,04,02,06,56,0.10
2018,04,02,06,57,0.10
2018,04,02,06,58,0.00
2018,04,02,06,59,-0.10
2018,04,02,07,00,-0.10
2018,04,02,07,01,-0.20
2018,04,02,07,02,-0.20
2018,04,02,07,03,-0.20
2018,04,02,07,04,-0.20
2018,04,02,07,05,-0.30
2018,04,02,07,06,-0.30
2018,04,02,07,07,-0.30
2018,04,02,07,08,-0.30
2018,04,02,07,09,-0.30
2018,04,02,07,10,-0.30
2018,04,02,07,11,-0.30
2018,04,02,07,12,-0.20
2018,04,02,07,13,-0.20
2018,04,02,07,14,-0.20
2018,04,02,07,15,-0.10
2018,04,02,07,16,0.00
2018,04,02,07,17,0.20
2018,04,02,07,18,0.30
2018,04,02,07,19,0.40
2018,04,02,07,20,0.50
2018,04,02,07,21,0.50
2018,04,02,07,22,0.60
2018,04,02,07,23,0.60
2018,04,02,07,24,0.60
2018,04,02,07,25,0.60
2018,04,02,07,26,0.60
2018,04,02,07,27,0.60
2018,04,02,07,28,0.60
2018,04,02,07,29,0.70
2018,04,02,07,30,0.70
2018,04,02,07,31,0.70
2018,04,02,07,32,0.80
2018,04,02,07,33,0.80
2018,04,02,07,34,0.80
2018,04,02,07,35,0.90
2018,04,02,07,36,0.90
2018,04,02,07,37,1.00
2018,04,02,07,38,1.00
2018,04,02,07,39,1.10
2018,04,02,07,40,1.20
2018,04,02,07,41,1.20
2018,04,02,07,42,1.30
2018,04,02,07,43,1.30
2018,04,02,07,44,1.40
2018,04,02,07,45,1.50
2018,04,02,07,46,1.60
2018,04,02,07,47,1.70
2018,04,02,07,48,1.70
2018,04,02,07,49,1.80
2018,04,02,07,50,1.80
2018,04,02,07,51,1.80
2018,04,02,07,52,1.80
2018,04,02,07,53,1.90
2018,04,02,07,54,1.90
2018,04,02,07,55,1.90
2018,04,02,07,56,1.90
2018,04,02,07,57,2.00
2018,04,02,07,58,2.00
2018,04,02,07,59,2.00
2018,04,02,08,00,2.10
2018,04,02,08,01,2.10
2018,04,02,08,02,2.20
2018,04,02,08,03,2.20
2018,04,02,08,04,2.30
2018,04,02,08,05,2.30
2018,04,02,08,06,2.40
2018,04,02,08,07,2.40
2018,04,02,08,08,2.40
2018,04,02,08,09,2.40
2018,04,02,08,10,2.50
2018,04,02,08,11,2.50
2018,04,02,08,12,2.50
2018,04,02,08,13,2.50
2018,04,02,08,14,2.50
2018,04,02,08,15,2.50
2018,04,02,08,16,2.50
2018,04,02,08,17,2.50
2018,04,02,08,18,2.50
2018,04,02,08,19,2.50
2018,04,02,08,20,2.60
2018,04,02,08,21,2.60
2018,04,02,08,22,2.60
2018,04,02,08,23,2.70
2018,04,02,08,24,2.70
2018,04,02,08,25,2.70
2018,04,02,08,26,2.80
2018,04,02,08,27,2.80
2018,04,02,08,28,2.80
2018,04,02,08,29,2.90
2018,04,02,08,30,2.90
2018,04,02,08,31,3.00
2018,04,02,08,32,3.00
2018,04,02,08,33,3.10
2018,04,02,08,34,3.10
2018,04,02,08,35,3.20
2018,04,02,08,36,3.20
2018,04,02,08,37,3.20
2018,04,02,08,38,3.30
2018,04,02,08,39,3.30
2018,04,02,08,40,3.30
2018,04,02,08,41,3.30
2018,04,02,08,42,3.30
2018,04,02,08,43,3.40
2018,04,02,08,44,3.40
2018,04,02,08,45,3.40
2018,04,02,08,46,3.40
2018,04,02,08,47,3.40
2018,04,02,08,48,3.40
2018,04,02,08,49,3.40
2018,04,02,08,50,3.40
2018,04,02,08,51,3.50
2018,04,02,08,52,3.50
2018,04,02,08,53,3.50
2018,04,02,08,54,3.60
2018,04,02,08,55,3.60
2018,04,02,08,56,3.60
2018,04,02,08,57,3.70
2018,04,02,08,58,3.70
2018,04,02,08,59,3.70
2018,04,02,09,00,3.80
2018,04,02,09,01,3.80
2018,04,02,09,02,3.90
2018,04,02,09,03,3.90
2018,04,02,09,04,3.90
2018,04,02,09,05,3.90
2018,04,02,09,06,3.90
2018,04,02,09,07,4.00
2018,04,02,09,08,4.00
2018,04,02,09,09,4.00
2018,04,02,09,10,4.00
2018,04,02,09,11,4.00
2018,04,02,09,12,4.10
2018,04,02,09,13,4.10
2018,04,02,09,14,4.10
2018,04,02,09,15,4.20
2018,04,02,09,16,4.20
2018,04,02,09,17,4.20
2018,04,02,09,18,4.30
2018,04,02,09,19,4.30
2018,04,02,09,20,4.30
2018,04,02,09,21,4.30
2018,04,02,09,22,4.40
2018,04,02,09,23,4.40
2018,04,02,09,24,4.40
2018,04,02,09,25,4.40
2018,04,02,09,26,4.50
2018,04,02,09,27,4.50
2018,04,02,09,28,4.50
2018,04,02,09,29,4.60
2018,04,02,09,30,4.60
2018,04,02,09,31,4.60
2018,04,02,09,32,4.70
2018,04,02,09,33,4.70
2018,04,02,09,34,4.80
2018,04,02,09,35,4.80
2018,04,02,09,36,4.80
2018,04,02,09,37,4.80
2018,04,02,09,38,4.80
2018,04,02,09,39,4.80
2018,04,02,09,40,4.80
2018,04,02,09,41,4.80
2018,04,02,09,42,4.80
2018,04,02,09,43,4.80
2018,04,02,09,44,4.80
2018,04,02,09,45,4.90
2018,04,02,09,46,4.90
2018,04,02,09,47,5.00
2018,04,02,09,48,5.00
2018,04,02,09,49,5.00
2018,04,02,09,50,5.00
2018,04,02,09,51,5.00
2018,04,02,09,52,5.10
2018,04,02,09,53,5.10
2018,04,02,09,54,5.20
2018,04,02,09,55,5.20
2018,04,02,09,56,5.20
2018,04,02,09,57,5.30
2018,04,02,09,58,5.40
2018,04,02,09,59,5.50
2018,04,02,10,00,5.50
2018,04,02,10,01,5.50
2018,04,02,10,02,5.60
2018,04,02,10,03,5.60
2018,04,02,10,04,5.70
2018,04,02,10,05,5.70
2018,04,02,10,06,5.70
2018,04,02,10,07,5.80
2018,04,02,10,08,5.80
2018,04,02,10,09,5.80
2018,04,02,10,10,5.90
2018,04,02,10,11,5.90
2018,04,02,10,12,6.00
2018,04,02,10,13,6.10
2018,04,02,10,14,6.30
2018,04,02,10,15,6.30
2018,04,02,10,16,6.30
2018,04,02,10,17,6.30
2018,04,02,10,18,6.20
2018,04,02,10,19,6.20
2018,04,02,10,20,6.20
2018,04,02,10,21,6.20
2018,04,02,10,22,6.30
2018,04,02,10,23,6.30
2018,04,02,10,24,6.40
2018,04,02,10,25,6.40
2018,04,02,10,26,6.40
2018,04,02,10,27,6.50
2018,04,02,10,28,6.50
2018,04,02,10,29,6.60
2018,04,02,10,30,6.60
2018,04,02,10,31,6.70
2018,04,02,10,32,6.70
2018,04,02,10,33,6.80
2018,04,02,10,34,6.80
2018,04,02,10,35,6.80
2018,04,02,10,36,6.70
2018,04,02,10,37,6.70
2018,04,02,10,38,6.70
2018,04,02,10,39,6.80
2018,04,02,10,40,6.80
2018,04,02,10,41,6.90
2018,04,02,10,42,7.00
2018,04,02,10,43,7.10
2018,04,02,10,44,7.10
2018,04,02,10,45,7.00
2018,04,02,10,46,6.80
2018,04,02,10,47,6.70
2018,04,02,10,48,6.60
2018,04,02,10,49,6.60
2018,04,02,10,50,6.60
2018,04,02,10,51,6.50
2018,04,02,10,52,6.50
2018,04,02,10,53,6.50
2018,04,02,10,54,6.50
2018,04,02,10,55,6.60
2018,04,02,10,56,6.60
2018,04,02,10,57,6.60
2018,04,02,10,58,6.60
2018,04,02,10,59,6.60
2018,04,02,11,00,6.60
2018,04,02,11,01,6.70
2018,04,02,11,02,6.80
2018,04,02,11,03,6.90
2018,04,02,11,04,6.90
2018,04,02,11,05,7.00
2018,04,02,11,06,7.00
2018,04,02,11,07,6.90
2018,04,02,11,08,6.90
2018,04,02,11,09,6.80
2018,04,02,11,10,6.80
2018,04,02,11,11,6.80
2018,04,02,11,12,6.80
2018,04,02,11,13,6.80
2018,04,02,11,14,6.80
2018,04,02,11,15,6.90
2018,04,02,11,16,6.90
2018,04,02,11,17,6.90
2018,04,02,11,18,6.90
2018,04,02,11,19,6.90
2018,04,02,11,20,7.00
2018,04,02,11,21,7.10
2018,04,02,11,22,7.10
2018,04,02,11,23,7.20
2018,04,02,11,24,7.30
2018,04,02,11,25,7.40
2018,04,02,11,26,7.50
2018,04,02,11,27,7.50
2018,04,02,11,28,7.60
2018,04,02,11,29,7.70
2018,04,02,11,30,7.60
2018,04,02,11,31,7.40
2018,04,02,11,32,7.40
2018,04,02,11,33,7.30
2018,04,02,11,34,7.20
2018,04,02,11,35,7.20
2018,04,02,11,36,7.20
2018,04,02,11,37,7.20
2018,04,02,11,38,7.20
2018,04,02,11,39,7.30
2018,04,02,11,40,7.30
2018,04,02,11,41,7.30
2018,04,02,11,42,7.40
2018,04,02,11,43,7.50
2018,04,02,11,44,7.60
2018,04,02,11,45,7.70
2018,04,02,11,46,7.70
2018,04,02,11,47,7.70
2018,04,02,11,48,7.70
2018,04,02,11,49,7.80
2018,04,02,11,50,7.80
2018,04,02,11,51,7.70
2018,04,02,11,52,7.60
2018,04,02,11,53,7.60
2018,04,02,11,54,7.50
2018,04,02,11,55,7.50
2018,04,02,11,56,7.40
2018,04,02,11,57,7.50
2018,04,02,11,58,7.50
2018,04,02,11,59,7.60
2018,04,02,12,00,7.60
2018,04,02,12,01,7.60
2018,04,02,12,02,7.70
2018,04,02,12,03,7.80
2018,04,02,12,04,7.80
2018,04,02,12,05,7.90
2018,04,02,12,06,7.90
2018,04,02,12,07,7.90
2018,04,02,12,08,7.90
2018,04,02,12,09,7.90
2018,04,02,12,10,7.90
2018,04,02,12,11,7.90
2018,04,02,12,12,8.00
2018,04,02,12,13,8.10
2018,04,02,12,14,8.10
2018,04,02,12,15,8.10
2018,04,02,12,16,8.10
2018,04,02,12,17,8.10
2018,04,02,12,18,8.10
2018,04,02,12,19,8.10
2018,04,02,12,20,8.10
2018,04,02,12,21,8.10
2018,04,02,12,22,8.10
2018,04,02,12,23,8.10
2018,04,02,12,24,8.10
2018,04,02,12,25,8.00
2018,04,02,12,26,8.10
2018,04,02,12,27,8.10
2018,04,02,12,28,8.10
2018,04,02,12,29,8.10
2018,04,02,12,30,8.20
2018,04,02,12,31,8.30
2018,04,02,12,32,8.40
2018,04,02,12,33,8.50
2018,04,02,12,34,8.60
2018,04,02,12,35,8.70
2018,04,02,12,36,8.80
2018,04,02,12,37,8.80
2018,04,02,12,38,8.80
2018,04,02,12,39,8.80
2018,04,02,12,40,8.70
2018,04,02,12,41,8.70
2018,04,02,12,42,8.60
2018,04,02,12,43,8.50
2018,04,02,12,44,8.30
2018,04,02,12,45,8.20
2018,04,02,12,46,8.10
2018,04,02,12,47,8.10
2018,04,02,12,48,8.20
2018,04,02,12,49,8.20
2018,04,02,12,50,8.20
2018,04,02,12,51,8.30
2018,04,02,12,52,8.40
2018,04,02,12,53,8.50
2018,04,02,12,54,8.60
2018,04,02,12,55,8.60
2018,04,02,12,56,8.70
2018,04,02,12,57,8.70
2018,04,02,12,58,8.70
2018,04,02,12,59,8.80
2018,04,02,13,00,8.90
2018,04,02,13,01,9.00
2018,04,02,13,02,9.00
2018,04,02,13,03,8.90
2018,04,02,13,04,8.90
2018,04,02,13,05,8.90
2018,04,02,13,06,9.00
2018,04,02,13,07,9.00
2018,04,02,13,08,8.90
2018,04,02,13,09,8.90
2018,04,02,13,10,8.90
2018,04,02,13,11,8.90
2018,04,02,13,12,8.80
2018,04,02,13,13,8.80
2018,04,02,13,14,8.80
2018,04,02,13,15,8.80
2018,04,02,13,16,8.90
2018,04,02,13,17,8.90
2018,04,02,13,18,8.90
2018,04,02,13,19,8.90
2018,04,02,13,20,8.90
2018,04,02,13,21,8.90
2018,04,02,13,22,9.00
2018,04,02,13,23,8.90
2018,04,02,13,24,8.90
2018,04,02,13,25,8.80
2018,04,02,13,26,8.80
2018,04,02,13,27,8.70
2018,04,02,13,28,8.70
2018,04,02,13,29,8.60
2018,04,02,13,30,8.50
2018,04,02,13,31,8.40
2018,04,02,13,32,8.40
2018,04,02,13,33,8.30
2018,04,02,13,34,8.20
2018,04,02,13,35,8.20
2018,04,02,13,36,8.20
2018,04,02,13,37,8.10
2018,04,02,13,38,8.10
2018,04,02,13,39,8.00
2018,04,02,13,40,8.00
2018,04,02,13,41,8.10
2018,04,02,13,42,8.20
2018,04,02,13,43,8.30
2018,04,02,13,44,8.40
2018,04,02,13,45,8.40
2018,04,02,13,46,8.30
2018,04,02,13,47,8.20
2018,04,02,13,48,8.10
2018,04,02,13,49,8.10
2018,04,02,13,50,8.20
2018,04,02,13,51,8.20
2018,04,02,13,52,8.20
2018,04,02,13,53,8.10
2018,04,02,13,54,8.10
2018,04,02,13,55,8.10
2018,04,02,13,56,8.00
2018,04,02,13,57,8.00
2018,04,02,13,58,7.90
2018,04,02,13,59,7.90
2018,04,02,14,00,8.00
2018,04,02,14,01,8.00
2018,04,02,14,02,8.10
2018,04,02,14,03,8.00
2018,04,02,14,04,8.00
2018,04,02,14,05,8.00
2018,04,02,14,06,7.90
2018,04,02,14,07,7.90
2018,04,02,14,08,7.80
2018,04,02,14,09,7.80
2018,04,02,14,10,7.70
2018,04,02,14,11,7.70
2018,04,02,14,12,7.70
2018,04,02,14,13,7.70
2018,04,02,14,14,7.70
2018,04,02,14,15,7.70
2018,04,02,14,16,7.80
2018,04,02,14,17,7.80
2018,04,02,14,18,7.80
2018,04,02,14,19,7.70
2018,04,02,14,20,7.70
2018,04,02,14,21,7.60
2018,04,02,14,22,7.60
2018,04,02,14,23,7.50
2018,04,02,14,24,7.50
2018,04,02,14,25,7.60
2018,04,02,14,26,7.70
2018,04,02,14,27,7.70
2018,04,02,14,28,7.70
2018,04,02,14,29,7.80
2018,04,02,14,30,7.80
2018,04,02,14,31,7.90
2018,04,02,14,32,8.00
2018,04,02,14,33,8.10
2018,04,02,14,34,8.20
2018,04,02,14,35,8.20
2018,04,02,14,36,8.30
2018,04,02,14,37,8.30
2018,04,02,14,38,8.30
2018,04,02,14,39,8.30
2018,04,02,14,40,8.30
2018,04,02,14,41,8.30
2018,04,02,14,42,8.30
2018,04,02,14,43,8.20
2018,04,02,14,44,8.10
2018,04,02,14,45,8.10
2018,04,02,14,46,8.10
2018,04,02,14,47,8.10
2018,04,02,14,48,8.10
2018,04,02,14,49,8.10
2018,04,02,14,50,8.10
2018,04,02,14,51,8.10
2018,04,02,14,52,8.20
2018,04,02,14,53,8.20
2018,04,02,14,54,8.20
2018,04,02,14,55,8.30
2018,04,02,14,56,8.40
2018,04,02,14,57,8.50
2018,04,02,14,58,8.50
2018,04,02,14,59,8.60
2018,04,02,15,00,8.50
2018,04,02,15,01,8.40
2018,04,02,15,02,8.30
2018,04,02,15,03,8.20
2018,04,02,15,04,8.10
2018,04,02,15,05,8.10
2018,04,02,15,06,8.10
2018,04,02,15,07,8.10
2018,04,02,15,08,8.20
2018,04,02,15,09,8.20
2018,04,02,15,10,8.20
2018,04,02,15,11,8.20
2018,04,02,15,12,8.20
2018,04,02,15,13,8.30
2018,04,02,15,14,8.30
2018,04,02,15,15,8.30
2018,04,02,15,16,8.40
2018,04,02,15,17,8.40
2018,04,02,15,18,8.30
2018,04,02,15,19,8.30
2018,04,02,15,20,8.30
2018,04,02,15,21,8.30
2018,04,02,15,22,8.20
2018,04,02,15,23,8.10
2018,04,02,15,24,8.00
2018,04,02,15,25,7.80
2018,04,02,15,26,7.80
2018,04,02,15,27,7.80
2018,04,02,15,28,7.90
2018,04,02,15,29,8.00
2018,04,02,15,30,8.10
2018,04,02,15,31,8.10
2018,04,02,15,32,8.00
2018,04,02,15,33,8.00
2018,04,02,15,34,8.00
2018,04,02,15,35,8.00
2018,04,02,15,36,8.00
2018,04,02,15,37,7.90
2018,04,02,15,38,7.90
2018,04,02,15,39,7.80
2018,04,02,15,40,7.80
2018,04,02,15,41,7.70
2018,04,02,15,42,7.70
2018,04,02,15,43,7.60
2018,04,02,15,44,7.60
2018,04,02,15,45,7.60
2018,04,02,15,46,7.50
2018,04,02,15,47,7.50
2018,04,02,15,48,7.50
2018,04,02,15,49,7.40
2018,04,02,15,50,7.40
2018,04,02,15,51,7.40
2018,04,02,15,52,7.40
2018,04,02,15,53,7.50
2018,04,02,15,54,7.50
2018,04,02,15,55,7.60
2018,04,02,15,56,7.70
2018,04,02,15,57,7.80
2018,04,02,15,58,7.80
2018,04,02,15,59,7.80
2018,04,02,16,00,7.80
2018,04,02,16,01,7.80
2018,04,02,16,02,7.80
2018,04,02,16,03,7.90
2018,04,02,16,04,7.90
2018,04,02,16,05,7.90
2018,04,02,16,06,7.90
2018,04,02,16,07,7.80
2018,04,02,16,08,7.70
2018,04,02,16,09,7.60
2018,04,02,16,10,7.60
2018,04,02,16,11,7.60
2018,04,02,16,12,7.60
2018,04,02,16,13,7.60
2018,04,02,16,14,7.60
2018,04,02,16,15,7.60
2018,04,02,16,16,7.60
2018,04,02,16,17,7.60
2018,04,02,16,18,7.60
2018,04,02,16,19,7.60
2018,04,02,16,20,7.60
2018,04,02,16,21,7.60
2018,04,02,16,22,7.50
2018,04,02,16,23,7.50
2018,04,02,16,24,7.40
2018,04,02,16,25,7.40
2018,04,02,16,26,7.40
2018,04,02,16,27,7.30
2018,04,02,16,28,7.30
2018,04,02,16,29,7.30
2018,04,02,16,30,7.30
2018,04,02,16,31,7.30
2018,04,02,16,32,7.30
2018,04,02,16,33,7.30
2018,04,02,16,34,7.30
2018,04,02,16,35,7.30
2018,04,02,16,36,7.30
2018,04,02,16,37,7.40
2018,04,02,16,38,7.40
2018,04,02,16,39,7.40
2018,04,02,16,40,7.50
2018,04,02,16,41,7.50
2018,04,02,16,42,7.50
2018,04,02,16,43,7.40
2018,04,02,16,44,7.40
2018,04,02,16,45,7.40
2018,04,02,16,46,7.40
2018,04,02,16,47,7.40
2018,04,02,16,48,7.40
2018,04,02,16,49,7.40
2018,04,02,16,50,7.40
2018,04,02,16,51,7.40
2018,04,02,16,52,7.40
2018,04,02,16,53,7.40
2018,04,02,16,54,7.50
2018,04,02,16,55,7.50
2018,04,02,16,56,7.50
2018,04,02,16,57,7.50
2018,04,02,16,58,7.50
2018,04,02,16,59,7.50
2018,04,02,17,00,7.50
2018,04,02,17,01,7.50
2018,04,02,17,02,7.50
2018,04,02,17,03,7.50
2018,04,02,17,04,7.40
2018,04,02,17,05,7.40
2018,04,02,17,06,7.50
2018,04,02,17,07,7.50
2018,04,02,17,08,7.60
2018,04,02,17,09,7.60
2018,04,02,17,10,7.70
2018,04,02,17,11,7.70
2018,04,02,17,12,7.70
2018,04,02,17,13,7.70
2018,04,02,17,14,7.70
2018,04,02,17,15,7.60
2018,04,02,17,16,7.70
2018,04,02,17,17,7.70
2018,04,02,17,18,7.70
2018,04,02,17,19,7.70
2018,04,02,17,20,7.70
2018,04,02,17,21,7.60
2018,04,02,17,22,7.60
2018,04,02,17,23,7.60
2018,04,02,17,24,7.60
2018,04,02,17,25,7.50
2018,04,02,17,26,7.50
2018,04,02,17,27,7.50
2018,04,02,17,28,7.40
2018,04,02,17,29,7.40
2018,04,02,17,30,7.40
2018,04,02,17,31,7.40
2018,04,02,17,32,7.40
2018,04,02,17,33,7.40
2018,04,02,17,34,7.40
2018,04,02,17,35,7.40
2018,04,02,17,36,7.40
2018,04,02,17,37,7.40
2018,04,02,17,38,7.40
2018,04,02,17,39,7.40
2018,04,02,17,40,7.40
2018,04,02,17,41,7.40
2018,04,02,17,42,7.40
2018,04,02,17,43,7.50
2018,04,02,17,44,7.50
2018,04,02,17,45,7.50
2018,04,02,17,46,7.40
2018,04,02,17,47,7.40
2018,04,02,17,48,7.40
2018,04,02,17,49,7.40
2018,04,02,17,50,7.40
2018,04,02,17,51,7.50
2018,04,02,17,52,7.40
2018,04,02,17,53,7.40
2018,04,02,17,54,7.40
2018,04,02,17,55,7.40
2018,04,02,17,56,7.40
2018,04,02,17,57,7.30
2018,04,02,17,58,7.30
2018,04,02,17,59,7.30
2018,04,02,18,00,7.30
2018,04,02,18,01,7.30
2018,04,02,18,02,7.30
2018,04,02,18,03,7.30